owner,sensor,date,latitude,longitude,vertical_datum,mass_concentration_of_oxygen_in_sea_water,qcFlag 
SCCF RECON,ioos:station:SCCF:56:1,2017-10-01T04:00:00Z,26.4645,-82.1044,1.861,2.03,1111122 
SCCF RECON,ioos:station:SCCF:56:1,2017-10-01T05:00:00Z,26.4645,-82.1044,1.85,2.15,1111122 
SCCF RECON,ioos:station:SCCF:56:1,2017-10-01T06:00:00Z,26.4645,-82.1044,1.761,1.84,1111122 
SCCF RECON,ioos:station:SCCF:56:1,2017-10-01T07:00:00Z,26.4645,-82.1044,1.71,1.93,1111122 
SCCF RECON,ioos:station:SCCF:56:1,2017-10-01T08:00:00Z,26.4645,-82.1044,1.65,1.75,1111122 
SCCF RECON,ioos:station:SCCF:56:1,2017-10-01T09:00:00Z,26.4645,-82.1044,1.61,1.5,1111122 
SCCF RECON,ioos:station:SCCF:56:1,2017-10-01T10:00:00Z,26.4645,-82.1044,1.65,1.44,1111122 
SCCF RECON,ioos:station:SCCF:56:1,2017-10-01T11:00:00Z,26.4645,-82.1044,1.718,3.33,1111122 
SCCF RECON,ioos:station:SCCF:56:1,2017-10-01T12:00:00Z,26.4645,-82.1044,1.8,3.03,1111122 
SCCF RECON,ioos:station:SCCF:56:1,2017-10-01T13:00:00Z,26.4645,-82.1044,1.88,3.21,1111122 
SCCF RECON,ioos:station:SCCF:56:1,2017-10-01T14:00:00Z,26.4645,-82.1044,1.91,3.13,1111122 
SCCF RECON,ioos:station:SCCF:56:1,2017-10-01T15:00:00Z,26.4645,-82.1044,1.908,3.31,1111122 
SCCF RECON,ioos:station:SCCF:56:1,2017-10-01T16:00:00Z,26.4645,-82.1044,1.86,2.87,1111122 
SCCF RECON,ioos:station:SCCF:56:1,2017-10-01T17:00:00Z,26.4645,-82.1044,1.804,2.68,1111122 
SCCF RECON,ioos:station:SCCF:56:1,2017-10-01T18:00:00Z,26.4645,-82.1044,1.69,2.49,1111122 
SCCF RECON,ioos:station:SCCF:56:1,2017-10-01T19:00:00Z,26.4645,-82.1044,1.57,2.44,1111122 
SCCF RECON,ioos:station:SCCF:56:1,2017-10-01T20:00:00Z,26.4645,-82.1044,1.45,2.25,1111122 
SCCF RECON,ioos:station:SCCF:56:1,2017-10-01T21:00:00Z,26.4645,-82.1044,1.38,2.79,1111122 
SCCF RECON,ioos:station:SCCF:56:1,2017-10-01T22:00:00Z,26.4645,-82.1044,1.37,2.96,1111122 
SCCF RECON,ioos:station:SCCF:56:1,2017-10-02T04:00:00Z,26.4645,-82.1044,1.911,3.87,1111122 
SCCF RECON,ioos:station:SCCF:56:1,2017-10-02T05:00:00Z,26.4645,-82.1044,1.903,3.74,1111122 
SCCF RECON,ioos:station:SCCF:56:1,2017-10-02T07:00:00Z,26.4645,-82.1044,1.742,3.39,1111122 
SCCF RECON,ioos:station:SCCF:56:1,2017-10-02T08:00:00Z,26.4645,-82.1044,1.661,2.74,1111122 
SCCF RECON,ioos:station:SCCF:56:1,2017-10-02T09:00:00Z,26.4645,-82.1044,1.619,2.4,1111122 
SCCF RECON,ioos:station:SCCF:56:1,2017-10-02T10:00:00Z,26.4645,-82.1044,1.62,2.24,1111122 
SCCF RECON,ioos:station:SCCF:56:1,2017-10-02T11:00:00Z,26.4645,-82.1044,1.715,3.41,1111122 
SCCF RECON,ioos:station:SCCF:56:1,2017-10-02T12:00:00Z,26.4645,-82.1044,1.818,3.35,1111122 
SCCF RECON,ioos:station:SCCF:56:1,2017-10-02T13:00:00Z,26.4645,-82.1044,1.92,3.42,1111122 
SCCF RECON,ioos:station:SCCF:56:1,2017-10-02T14:00:00Z,26.4645,-82.1044,1.982,3.65,1111122 
SCCF RECON,ioos:station:SCCF:56:1,2017-10-02T15:00:00Z,26.4645,-82.1044,2.02,3.9,1111122 
SCCF RECON,ioos:station:SCCF:56:1,2017-10-02T16:00:00Z,26.4645,-82.1044,2.012,3.75,1111122 
SCCF RECON,ioos:station:SCCF:56:1,2017-10-02T17:00:00Z,26.4645,-82.1044,2.004,4.15,1111122 
SCCF RECON,ioos:station:SCCF:56:1,2017-10-02T18:00:00Z,26.4645,-82.1044,1.942,3.65,1111122 
SCCF RECON,ioos:station:SCCF:56:1,2017-10-02T19:00:00Z,26.4645,-82.1044,1.79,3.23,1111122 
SCCF RECON,ioos:station:SCCF:56:1,2017-10-02T20:00:00Z,26.4645,-82.1044,1.671,3.29,1111122 
SCCF RECON,ioos:station:SCCF:56:1,2017-10-02T21:00:00Z,26.4645,-82.1044,1.57,2.96,1111122 
SCCF RECON,ioos:station:SCCF:56:1,2017-10-02T22:00:00Z,26.4645,-82.1044,1.461,2.85,1111122 
SCCF RECON,ioos:station:SCCF:56:1,2017-10-03T04:00:00Z,26.4645,-82.1044,1.929,4.1,1111122 
SCCF RECON,ioos:station:SCCF:56:1,2017-10-03T05:00:00Z,26.4645,-82.1044,1.905,4.02,1111122 
SCCF RECON,ioos:station:SCCF:56:1,2017-10-03T06:00:00Z,26.4645,-82.1044,1.813,3.72,1111122 
SCCF RECON,ioos:station:SCCF:56:1,2017-10-03T07:00:00Z,26.4645,-82.1044,1.692,3.19,1111122 
SCCF RECON,ioos:station:SCCF:56:1,2017-10-03T08:00:00Z,26.4645,-82.1044,1.61,2.81,1111122 
SCCF RECON,ioos:station:SCCF:56:1,2017-10-03T09:00:00Z,26.4645,-82.1044,1.531,2.24,1111122 
SCCF RECON,ioos:station:SCCF:56:1,2017-10-03T12:00:00Z,26.4645,-82.1044,1.639,3.17,1111122 
SCCF RECON,ioos:station:SCCF:56:1,2017-10-03T13:00:00Z,26.4645,-82.1044,1.761,3.54,1111122 
SCCF RECON,ioos:station:SCCF:56:1,2017-10-03T14:00:00Z,26.4645,-82.1044,1.877,3.81,1111122 
SCCF RECON,ioos:station:SCCF:56:1,2017-10-03T15:00:00Z,26.4645,-82.1044,1.939,4.37,1111122 
SCCF RECON,ioos:station:SCCF:56:1,2017-10-03T16:00:00Z,26.4645,-82.1044,1.97,4.26,1111122 
SCCF RECON,ioos:station:SCCF:56:1,2017-10-03T17:00:00Z,26.4645,-82.1044,1.933,4.19,1111122 
SCCF RECON,ioos:station:SCCF:56:1,2017-10-03T18:00:00Z,26.4645,-82.1044,1.876,4.1,1111122 
SCCF RECON,ioos:station:SCCF:56:1,2017-10-03T19:00:00Z,26.4645,-82.1044,1.79,3.74,1111122 
SCCF RECON,ioos:station:SCCF:56:1,2017-10-03T20:00:00Z,26.4645,-82.1044,1.617,3.32,1111122 
SCCF RECON,ioos:station:SCCF:56:1,2017-10-03T21:00:00Z,26.4645,-82.1044,1.492,3.28,1111122 
SCCF RECON,ioos:station:SCCF:56:1,2017-10-03T22:00:00Z,26.4645,-82.1044,1.382,3.35,1111122 
SCCF RECON,ioos:station:SCCF:56:1,2017-10-04T04:00:00Z,26.4645,-82.1044,1.807,4.48,1111122 
SCCF RECON,ioos:station:SCCF:56:1,2017-10-04T05:00:00Z,26.4645,-82.1044,1.83,4.49,1111122 
SCCF RECON,ioos:station:SCCF:56:1,2017-10-04T06:00:00Z,26.4645,-82.1044,1.802,4.17,1111122 
SCCF RECON,ioos:station:SCCF:56:1,2017-10-04T07:00:00Z,26.4645,-82.1044,1.715,4.05,1111122 
SCCF RECON,ioos:station:SCCF:56:1,2017-10-04T08:00:00Z,26.4645,-82.1044,1.587,3.72,1111122 
SCCF RECON,ioos:station:SCCF:56:1,2017-10-04T09:00:00Z,26.4645,-82.1044,1.462,3.35,1111122 
SCCF RECON,ioos:station:SCCF:56:1,2017-10-04T11:00:00Z,26.4645,-82.1044,1.342,2.84,1111122 
SCCF RECON,ioos:station:SCCF:56:1,2017-10-04T12:00:00Z,26.4645,-82.1044,1.39,3.68,1111122 
SCCF RECON,ioos:station:SCCF:56:1,2017-10-04T13:00:00Z,26.4645,-82.1044,1.54,4.59,1111122 
SCCF RECON,ioos:station:SCCF:56:1,2017-10-04T14:00:00Z,26.4645,-82.1044,1.706,4.52,1111122 
SCCF RECON,ioos:station:SCCF:56:1,2017-10-04T15:00:00Z,26.4645,-82.1044,1.816,4.73,1111122 
SCCF RECON,ioos:station:SCCF:56:1,2017-10-04T16:00:00Z,26.4645,-82.1044,1.913,4.76,1111122 
SCCF RECON,ioos:station:SCCF:56:1,2017-10-04T17:00:00Z,26.4645,-82.1044,1.922,4.77,1111122 
SCCF RECON,ioos:station:SCCF:56:1,2017-10-04T18:00:00Z,26.4645,-82.1044,1.893,4.67,1111122 
SCCF RECON,ioos:station:SCCF:56:1,2017-10-04T19:00:00Z,26.4645,-82.1044,1.811,4.14,1111122 
SCCF RECON,ioos:station:SCCF:56:1,2017-10-04T20:00:00Z,26.4645,-82.1044,1.695,4.21,1111122 
SCCF RECON,ioos:station:SCCF:56:1,2017-10-04T21:00:00Z,26.4645,-82.1044,1.606,4.32,1111122 
SCCF RECON,ioos:station:SCCF:56:1,2017-10-04T22:00:00Z,26.4645,-82.1044,1.516,4.09,1111122 
SCCF RECON,ioos:station:SCCF:56:1,2017-10-05T04:00:00Z,26.4645,-82.1044,1.871,4.77,1111122 
SCCF RECON,ioos:station:SCCF:56:1,2017-10-05T05:00:00Z,26.4645,-82.1044,1.953,4.66,1111122 
SCCF RECON,ioos:station:SCCF:56:1,2017-10-05T06:00:00Z,26.4645,-82.1044,1.941,4.65,1111122 
SCCF RECON,ioos:station:SCCF:56:1,2017-10-05T07:00:00Z,26.4645,-82.1044,1.871,4.44,1111122 
SCCF RECON,ioos:station:SCCF:56:1,2017-10-05T08:00:00Z,26.4645,-82.1044,1.74,3.86,1111122 
SCCF RECON,ioos:station:SCCF:56:1,2017-10-05T09:00:00Z,26.4645,-82.1044,1.597,3.47,1111122 
SCCF RECON,ioos:station:SCCF:56:1,2017-10-05T10:00:00Z,26.4645,-82.1044,1.5,3.19,1111122 
SCCF RECON,ioos:station:SCCF:56:1,2017-10-05T11:00:00Z,26.4645,-82.1044,1.43,3.11,1111122 
SCCF RECON,ioos:station:SCCF:56:1,2017-10-05T12:00:00Z,26.4645,-82.1044,1.375,3.01,1111122 
SCCF RECON,ioos:station:SCCF:56:1,2017-10-05T13:00:00Z,26.4645,-82.1044,1.444,3.17,1111122 
SCCF RECON,ioos:station:SCCF:56:1,2017-10-05T14:00:00Z,26.4645,-82.1044,1.617,4.44,1111122 
SCCF RECON,ioos:station:SCCF:56:1,2017-10-05T15:00:00Z,26.4645,-82.1044,1.778,4.63,1111122 
SCCF RECON,ioos:station:SCCF:56:1,2017-10-05T16:00:00Z,26.4645,-82.1044,1.881,4.8,1111122 
SCCF RECON,ioos:station:SCCF:56:1,2017-10-05T18:00:00Z,26.4645,-82.1044,1.944,4.91,1111122 
SCCF RECON,ioos:station:SCCF:56:1,2017-10-05T19:00:00Z,26.4645,-82.1044,1.922,4.92,1111122 
SCCF RECON,ioos:station:SCCF:56:1,2017-10-05T20:00:00Z,26.4645,-82.1044,1.872,4.4,1111122 
SCCF RECON,ioos:station:SCCF:56:1,2017-10-05T21:00:00Z,26.4645,-82.1044,1.757,3.54,1111122 
SCCF RECON,ioos:station:SCCF:56:1,2017-10-05T22:00:00Z,26.4645,-82.1044,1.613,3.77,1111122 
SCCF RECON,ioos:station:SCCF:56:1,2017-10-06T04:00:00Z,26.4645,-82.1044,2.013,4.82,1111122 
SCCF RECON,ioos:station:SCCF:56:1,2017-10-06T05:00:00Z,26.4645,-82.1044,2.099,4.64,1111122 
SCCF RECON,ioos:station:SCCF:56:1,2017-10-06T06:00:00Z,26.4645,-82.1044,2.147,4.79,1111122 
SCCF RECON,ioos:station:SCCF:56:1,2017-10-06T07:00:00Z,26.4645,-82.1044,2.161,4.69,1111122 
SCCF RECON,ioos:station:SCCF:56:1,2017-10-06T08:00:00Z,26.4645,-82.1044,2.08,3.91,1111122 
SCCF RECON,ioos:station:SCCF:56:1,2017-10-06T09:00:00Z,26.4645,-82.1044,1.935,3.67,1111122 
SCCF RECON,ioos:station:SCCF:56:1,2017-10-06T10:00:00Z,26.4645,-82.1044,1.779,3.42,1111122 
SCCF RECON,ioos:station:SCCF:56:1,2017-10-06T11:00:00Z,26.4645,-82.1044,1.659,3.29,1111122 
SCCF RECON,ioos:station:SCCF:56:1,2017-10-06T12:00:00Z,26.4645,-82.1044,1.58,2.91,1111122 
SCCF RECON,ioos:station:SCCF:56:1,2017-10-06T13:00:00Z,26.4645,-82.1044,1.56,2.67,1111122 
SCCF RECON,ioos:station:SCCF:56:1,2017-10-06T14:00:00Z,26.4645,-82.1044,1.695,3.03,1111122 
SCCF RECON,ioos:station:SCCF:56:1,2017-10-06T15:00:00Z,26.4645,-82.1044,1.887,4.15,1111122 
SCCF RECON,ioos:station:SCCF:56:1,2017-10-06T16:00:00Z,26.4645,-82.1044,2.034,4.52,1111122 
SCCF RECON,ioos:station:SCCF:56:1,2017-10-06T17:00:00Z,26.4645,-82.1044,2.12,4.56,1111122 
SCCF RECON,ioos:station:SCCF:56:1,2017-10-06T18:00:00Z,26.4645,-82.1044,2.173,4.51,1111122 
SCCF RECON,ioos:station:SCCF:56:1,2017-10-06T19:00:00Z,26.4645,-82.1044,2.17,4.29,1111122 
SCCF RECON,ioos:station:SCCF:56:1,2017-10-06T20:00:00Z,26.4645,-82.1044,2.088,4.11,1111122 
SCCF RECON,ioos:station:SCCF:56:1,2017-10-06T21:00:00Z,26.4645,-82.1044,1.961,4.08,1111122 
SCCF RECON,ioos:station:SCCF:56:1,2017-10-06T22:00:00Z,26.4645,-82.1044,1.86,3.74,1111122 
SCCF RECON,ioos:station:SCCF:56:1,2017-10-07T04:00:00Z,26.4645,-82.1044,2.052,3.84,1111122 
SCCF RECON,ioos:station:SCCF:56:1,2017-10-07T05:00:00Z,26.4645,-82.1044,2.149,3.74,1111122 
SCCF RECON,ioos:station:SCCF:56:1,2017-10-07T06:00:00Z,26.4645,-82.1044,2.189,3.98,1111122 
SCCF RECON,ioos:station:SCCF:56:1,2017-10-07T07:00:00Z,26.4645,-82.1044,2.193,4.02,1111122 
SCCF RECON,ioos:station:SCCF:56:1,2017-10-07T08:00:00Z,26.4645,-82.1044,2.118,3.91,1111122 
SCCF RECON,ioos:station:SCCF:56:1,2017-10-07T09:00:00Z,26.4645,-82.1044,1.966,3.49,1111122 
SCCF RECON,ioos:station:SCCF:56:1,2017-10-07T10:00:00Z,26.4645,-82.1044,1.809,2.61,1111122 
SCCF RECON,ioos:station:SCCF:56:1,2017-10-07T11:00:00Z,26.4645,-82.1044,1.69,2.16,1111122 
SCCF RECON,ioos:station:SCCF:56:1,2017-10-07T12:00:00Z,26.4645,-82.1044,1.6,1.84,1111122 
SCCF RECON,ioos:station:SCCF:56:1,2017-10-07T13:00:00Z,26.4645,-82.1044,1.53,1.8,1111122 
SCCF RECON,ioos:station:SCCF:56:1,2017-10-07T14:00:00Z,26.4645,-82.1044,1.56,1.82,1111122 
SCCF RECON,ioos:station:SCCF:56:1,2017-10-07T15:00:00Z,26.4645,-82.1044,1.779,3.67,1111122 
SCCF RECON,ioos:station:SCCF:56:1,2017-10-07T16:00:00Z,26.4645,-82.1044,1.957,4.06,1111122 
SCCF RECON,ioos:station:SCCF:56:1,2017-10-07T17:00:00Z,26.4645,-82.1044,2.09,4.27,1111122 
SCCF RECON,ioos:station:SCCF:56:1,2017-10-07T18:00:00Z,26.4645,-82.1044,2.18,4.31,1111122 
SCCF RECON,ioos:station:SCCF:56:1,2017-10-07T19:00:00Z,26.4645,-82.1044,2.264,4.35,1111122 
SCCF RECON,ioos:station:SCCF:56:1,2017-10-07T20:00:00Z,26.4645,-82.1044,2.251,4.53,1111122 
SCCF RECON,ioos:station:SCCF:56:1,2017-10-07T21:00:00Z,26.4645,-82.1044,2.19,4.13,1111122 
SCCF RECON,ioos:station:SCCF:56:1,2017-10-07T22:00:00Z,26.4645,-82.1044,2.087,3.81,1111122 
SCCF RECON,ioos:station:SCCF:56:1,2017-10-08T04:00:00Z,26.4645,-82.1044,2.1,4.17,1111122 
SCCF RECON,ioos:station:SCCF:56:1,2017-10-08T05:00:00Z,26.4645,-82.1044,2.16,4.59,1111122 
SCCF RECON,ioos:station:SCCF:56:1,2017-10-08T06:00:00Z,26.4645,-82.1044,2.209,4.5,1111122 
SCCF RECON,ioos:station:SCCF:56:1,2017-10-08T07:00:00Z,26.4645,-82.1044,2.216,4.53,1111122 
SCCF RECON,ioos:station:SCCF:56:1,2017-10-08T08:00:00Z,26.4645,-82.1044,2.171,4.46,1111122 
SCCF RECON,ioos:station:SCCF:56:1,2017-10-08T09:00:00Z,26.4645,-82.1044,2.05,3.94,1111122 
SCCF RECON,ioos:station:SCCF:56:1,2017-10-08T10:00:00Z,26.4645,-82.1044,1.89,3.4,1111122 
SCCF RECON,ioos:station:SCCF:56:1,2017-10-08T11:00:00Z,26.4645,-82.1044,1.74,2.35,1111122 
SCCF RECON,ioos:station:SCCF:56:1,2017-10-08T12:00:00Z,26.4645,-82.1044,1.62,1.85,1111122 
SCCF RECON,ioos:station:SCCF:56:1,2017-10-08T13:00:00Z,26.4645,-82.1044,1.48,1.54,1111122 
SCCF RECON,ioos:station:SCCF:56:1,2017-10-08T14:00:00Z,26.4645,-82.1044,1.392,1.56,1111122 
SCCF RECON,ioos:station:SCCF:56:1,2017-10-08T15:00:00Z,26.4645,-82.1044,1.43,1.63,1111122 
SCCF RECON,ioos:station:SCCF:56:1,2017-10-08T16:00:00Z,26.4645,-82.1044,1.629,4.4,1111122 
SCCF RECON,ioos:station:SCCF:56:1,2017-10-08T17:00:00Z,26.4645,-82.1044,1.828,4.7,1111122 
SCCF RECON,ioos:station:SCCF:56:1,2017-10-08T18:00:00Z,26.4645,-82.1044,1.966,4.98,1111122 
SCCF RECON,ioos:station:SCCF:56:1,2017-10-08T19:00:00Z,26.4645,-82.1044,2.05,5.19,1111122 
SCCF RECON,ioos:station:SCCF:56:1,2017-10-08T20:00:00Z,26.4645,-82.1044,2.08,6.29,1111122 
SCCF RECON,ioos:station:SCCF:56:1,2017-10-08T21:00:00Z,26.4645,-82.1044,2.06,5.67,1111122 
SCCF RECON,ioos:station:SCCF:56:1,2017-10-08T22:00:00Z,26.4645,-82.1044,1.999,4.99,1111122 
SCCF RECON,ioos:station:SCCF:56:1,2017-10-09T04:00:00Z,26.4645,-82.1044,1.936,3.78,1111122 
SCCF RECON,ioos:station:SCCF:56:1,2017-10-09T05:00:00Z,26.4645,-82.1044,2.051,4.28,1111122 
SCCF RECON,ioos:station:SCCF:56:1,2017-10-09T06:00:00Z,26.4645,-82.1044,2.14,4.22,1111122 
SCCF RECON,ioos:station:SCCF:56:1,2017-10-09T07:00:00Z,26.4645,-82.1044,2.177,4.37,1111122 
SCCF RECON,ioos:station:SCCF:56:1,2017-10-09T08:00:00Z,26.4645,-82.1044,2.17,4.35,1111122 
SCCF RECON,ioos:station:SCCF:56:1,2017-10-09T09:00:00Z,26.4645,-82.1044,2.09,3.59,1111122 
SCCF RECON,ioos:station:SCCF:56:1,2017-10-09T10:00:00Z,26.4645,-82.1044,1.98,3.61,1111122 
SCCF RECON,ioos:station:SCCF:56:1,2017-10-09T11:00:00Z,26.4645,-82.1044,1.824,2.66,1111122 
SCCF RECON,ioos:station:SCCF:56:1,2017-10-09T12:00:00Z,26.4645,-82.1044,1.66,1.95,1111122 
SCCF RECON,ioos:station:SCCF:56:1,2017-10-09T13:00:00Z,26.4645,-82.1044,1.53,1.52,1111122 
SCCF RECON,ioos:station:SCCF:56:1,2017-10-09T14:00:00Z,26.4645,-82.1044,1.403,1.32,1111122 
SCCF RECON,ioos:station:SCCF:56:1,2017-10-09T15:00:00Z,26.4645,-82.1044,1.33,1.31,1111122 
SCCF RECON,ioos:station:SCCF:56:1,2017-10-09T16:00:00Z,26.4645,-82.1044,1.38,1.41,1111122 
SCCF RECON,ioos:station:SCCF:56:1,2017-10-09T18:00:00Z,26.4645,-82.1044,1.72,5.0,1111122 
SCCF RECON,ioos:station:SCCF:56:1,2017-10-09T19:00:00Z,26.4645,-82.1044,1.831,5.76,1111122 
SCCF RECON,ioos:station:SCCF:56:1,2017-10-09T20:00:00Z,26.4645,-82.1044,1.906,6.73,1111122 
SCCF RECON,ioos:station:SCCF:56:1,2017-10-09T21:00:00Z,26.4645,-82.1044,1.932,6.89,1111122 
SCCF RECON,ioos:station:SCCF:56:1,2017-10-09T22:00:00Z,26.4645,-82.1044,1.926,5.48,1111122 
SCCF RECON,ioos:station:SCCF:56:1,2017-10-10T04:00:00Z,26.4645,-82.1044,1.821,4.49,1111122 
SCCF RECON,ioos:station:SCCF:56:1,2017-10-10T05:00:00Z,26.4645,-82.1044,1.9,4.69,1111122 
SCCF RECON,ioos:station:SCCF:56:1,2017-10-10T06:00:00Z,26.4645,-82.1044,2.0,4.46,1111122 
SCCF RECON,ioos:station:SCCF:56:1,2017-10-10T07:00:00Z,26.4645,-82.1044,2.05,4.38,1111122 
SCCF RECON,ioos:station:SCCF:56:1,2017-10-10T08:00:00Z,26.4645,-82.1044,2.05,4.27,1111122 
SCCF RECON,ioos:station:SCCF:56:1,2017-10-10T09:00:00Z,26.4645,-82.1044,2.01,4.23,1111122 
SCCF RECON,ioos:station:SCCF:56:1,2017-10-10T10:00:00Z,26.4645,-82.1044,1.949,3.92,1111122 
SCCF RECON,ioos:station:SCCF:56:1,2017-10-10T11:00:00Z,26.4645,-82.1044,1.861,3.31,1111122 
SCCF RECON,ioos:station:SCCF:56:1,2017-10-10T12:00:00Z,26.4645,-82.1044,1.731,2.66,1111122 
SCCF RECON,ioos:station:SCCF:56:1,2017-10-10T13:00:00Z,26.4645,-82.1044,1.609,1.79,1111122 
SCCF RECON,ioos:station:SCCF:56:1,2017-10-10T14:00:00Z,26.4645,-82.1044,1.478,1.48,1111122 
SCCF RECON,ioos:station:SCCF:56:1,2017-10-10T15:00:00Z,26.4645,-82.1044,1.37,1.59,1111122 
SCCF RECON,ioos:station:SCCF:56:1,2017-10-10T16:00:00Z,26.4645,-82.1044,1.31,1.88,1111122 
SCCF RECON,ioos:station:SCCF:56:1,2017-10-10T17:00:00Z,26.4645,-82.1044,1.347,2.36,1111122 
SCCF RECON,ioos:station:SCCF:56:1,2017-10-10T18:00:00Z,26.4645,-82.1044,1.485,5.98,1111122 
SCCF RECON,ioos:station:SCCF:56:1,2017-10-10T19:00:00Z,26.4645,-82.1044,1.64,6.88,1111122 
SCCF RECON,ioos:station:SCCF:56:1,2017-10-10T20:00:00Z,26.4645,-82.1044,1.754,6.84,1111122 
SCCF RECON,ioos:station:SCCF:56:1,2017-10-10T21:00:00Z,26.4645,-82.1044,1.798,5.54,1111122 
SCCF RECON,ioos:station:SCCF:56:1,2017-10-10T22:00:00Z,26.4645,-82.1044,1.85,4.87,1111122 
SCCF RECON,ioos:station:SCCF:56:1,2017-10-11T04:00:00Z,26.4645,-82.1044,1.789,4.48,1111122 
SCCF RECON,ioos:station:SCCF:56:1,2017-10-11T05:00:00Z,26.4645,-82.1044,1.81,4.17,1111122 
SCCF RECON,ioos:station:SCCF:56:1,2017-10-11T06:00:00Z,26.4645,-82.1044,1.873,4.05,1111122 
SCCF RECON,ioos:station:SCCF:56:1,2017-10-11T07:00:00Z,26.4645,-82.1044,1.94,4.0,1111122 
SCCF RECON,ioos:station:SCCF:56:1,2017-10-11T08:00:00Z,26.4645,-82.1044,1.994,4.05,1111122 
SCCF RECON,ioos:station:SCCF:56:1,2017-10-11T09:00:00Z,26.4645,-82.1044,1.99,4.04,1111122 
SCCF RECON,ioos:station:SCCF:56:1,2017-10-11T10:00:00Z,26.4645,-82.1044,1.95,3.9,1111122 
SCCF RECON,ioos:station:SCCF:56:1,2017-10-11T11:00:00Z,26.4645,-82.1044,1.9,3.29,1111122 
SCCF RECON,ioos:station:SCCF:56:1,2017-10-11T12:00:00Z,26.4645,-82.1044,1.802,2.75,1111122 
SCCF RECON,ioos:station:SCCF:56:1,2017-10-11T13:00:00Z,26.4645,-82.1044,1.67,2.05,1111122 
SCCF RECON,ioos:station:SCCF:56:1,2017-10-11T14:00:00Z,26.4645,-82.1044,1.553,1.61,1111122 
SCCF RECON,ioos:station:SCCF:56:1,2017-10-11T15:00:00Z,26.4645,-82.1044,1.445,1.81,1111122 
SCCF RECON,ioos:station:SCCF:56:1,2017-10-11T16:00:00Z,26.4645,-82.1044,1.337,2.17,1111122 
SCCF RECON,ioos:station:SCCF:56:1,2017-10-11T17:00:00Z,26.4645,-82.1044,1.256,2.59,1111122 
SCCF RECON,ioos:station:SCCF:56:1,2017-10-11T18:00:00Z,26.4645,-82.1044,1.28,2.85,1111122 
SCCF RECON,ioos:station:SCCF:56:1,2017-10-11T19:00:00Z,26.4645,-82.1044,1.401,5.07,1111122 
SCCF RECON,ioos:station:SCCF:56:1,2017-10-11T20:00:00Z,26.4645,-82.1044,1.53,5.48,1111122 
SCCF RECON,ioos:station:SCCF:56:1,2017-10-11T21:00:00Z,26.4645,-82.1044,1.633,5.05,1111122 
SCCF RECON,ioos:station:SCCF:56:1,2017-10-11T22:00:00Z,26.4645,-82.1044,1.708,4.83,1111122 
SCCF RECON,ioos:station:SCCF:56:1,2017-10-12T05:00:00Z,26.4645,-82.1044,1.707,3.37,1111122 
SCCF RECON,ioos:station:SCCF:56:1,2017-10-12T06:00:00Z,26.4645,-82.1044,1.712,3.41,1111122 
SCCF RECON,ioos:station:SCCF:56:1,2017-10-12T07:00:00Z,26.4645,-82.1044,1.78,3.29,1111122 
SCCF RECON,ioos:station:SCCF:56:1,2017-10-12T08:00:00Z,26.4645,-82.1044,1.85,3.74,1111122 
SCCF RECON,ioos:station:SCCF:56:1,2017-10-12T09:00:00Z,26.4645,-82.1044,1.908,3.8,1111122 
SCCF RECON,ioos:station:SCCF:56:1,2017-10-12T10:00:00Z,26.4645,-82.1044,1.951,3.72,1111122 
SCCF RECON,ioos:station:SCCF:56:1,2017-10-12T11:00:00Z,26.4645,-82.1044,1.98,3.64,1111122 
SCCF RECON,ioos:station:SCCF:56:1,2017-10-12T12:00:00Z,26.4645,-82.1044,1.96,3.41,1111122 
SCCF RECON,ioos:station:SCCF:56:1,2017-10-12T13:00:00Z,26.4645,-82.1044,1.868,3.19,1111122 
SCCF RECON,ioos:station:SCCF:56:1,2017-10-12T14:00:00Z,26.4645,-82.1044,1.745,2.6,1111122 
SCCF RECON,ioos:station:SCCF:56:1,2017-10-12T15:00:00Z,26.4645,-82.1044,1.609,2.03,1111122 
SCCF RECON,ioos:station:SCCF:56:1,2017-10-12T16:00:00Z,26.4645,-82.1044,1.488,2.05,1111122 
SCCF RECON,ioos:station:SCCF:56:1,2017-10-12T17:00:00Z,26.4645,-82.1044,1.39,2.32,1111122 
SCCF RECON,ioos:station:SCCF:56:1,2017-10-12T18:00:00Z,26.4645,-82.1044,1.311,2.75,1111122 
SCCF RECON,ioos:station:SCCF:56:1,2017-10-12T19:00:00Z,26.4645,-82.1044,1.304,2.94,1111122 
SCCF RECON,ioos:station:SCCF:56:1,2017-10-12T20:00:00Z,26.4645,-82.1044,1.39,3.95,1111122 
SCCF RECON,ioos:station:SCCF:56:1,2017-10-12T21:00:00Z,26.4645,-82.1044,1.515,5.09,1111122 
SCCF RECON,ioos:station:SCCF:56:1,2017-10-12T22:00:00Z,26.4645,-82.1044,1.614,4.57,1111122 
SCCF RECON,ioos:station:SCCF:56:1,2017-10-13T04:00:00Z,26.4645,-82.1044,1.69,3.69,1111122 
SCCF RECON,ioos:station:SCCF:56:1,2017-10-13T05:00:00Z,26.4645,-82.1044,1.67,3.83,1111122 
SCCF RECON,ioos:station:SCCF:56:1,2017-10-13T06:00:00Z,26.4645,-82.1044,1.63,3.57,1111122 
SCCF RECON,ioos:station:SCCF:56:1,2017-10-13T07:00:00Z,26.4645,-82.1044,1.641,3.4,1111122 
SCCF RECON,ioos:station:SCCF:56:1,2017-10-13T08:00:00Z,26.4645,-82.1044,1.674,3.57,1111122 
SCCF RECON,ioos:station:SCCF:56:1,2017-10-13T09:00:00Z,26.4645,-82.1044,1.76,3.98,1111122 
SCCF RECON,ioos:station:SCCF:56:1,2017-10-13T10:00:00Z,26.4645,-82.1044,1.814,4.07,1111122 
SCCF RECON,ioos:station:SCCF:56:1,2017-10-13T11:00:00Z,26.4645,-82.1044,1.879,3.97,1111122 
SCCF RECON,ioos:station:SCCF:56:1,2017-10-13T12:00:00Z,26.4645,-82.1044,1.91,3.99,1111122 
SCCF RECON,ioos:station:SCCF:56:1,2017-10-13T13:00:00Z,26.4645,-82.1044,1.9,3.58,1111122 
SCCF RECON,ioos:station:SCCF:56:1,2017-10-13T14:00:00Z,26.4645,-82.1044,1.84,3.3,1111122 
SCCF RECON,ioos:station:SCCF:56:1,2017-10-13T15:00:00Z,26.4645,-82.1044,1.742,2.81,1111122 
SCCF RECON,ioos:station:SCCF:56:1,2017-10-13T16:00:00Z,26.4645,-82.1044,1.609,2.65,1111122 
SCCF RECON,ioos:station:SCCF:56:1,2017-10-13T17:00:00Z,26.4645,-82.1044,1.48,2.55,1111122 
SCCF RECON,ioos:station:SCCF:56:1,2017-10-13T18:00:00Z,26.4645,-82.1044,1.375,2.68,1111122 
SCCF RECON,ioos:station:SCCF:56:1,2017-10-13T19:00:00Z,26.4645,-82.1044,1.303,2.91,1111122 
SCCF RECON,ioos:station:SCCF:56:1,2017-10-13T20:00:00Z,26.4645,-82.1044,1.331,2.89,1111122 
SCCF RECON,ioos:station:SCCF:56:1,2017-10-13T21:00:00Z,26.4645,-82.1044,1.441,6.03,1111122 
SCCF RECON,ioos:station:SCCF:56:1,2017-10-13T22:00:00Z,26.4645,-82.1044,1.57,4.98,1111122 
SCCF RECON,ioos:station:SCCF:56:1,2017-10-14T04:00:00Z,26.4645,-82.1044,1.887,4.14,1111122 
SCCF RECON,ioos:station:SCCF:56:1,2017-10-14T05:00:00Z,26.4645,-82.1044,1.828,3.98,1111122 
SCCF RECON,ioos:station:SCCF:56:1,2017-10-14T06:00:00Z,26.4645,-82.1044,1.755,3.97,1111122 
SCCF RECON,ioos:station:SCCF:56:1,2017-10-14T07:00:00Z,26.4645,-82.1044,1.67,3.3,1111122 
SCCF RECON,ioos:station:SCCF:56:1,2017-10-14T08:00:00Z,26.4645,-82.1044,1.651,3.27,1111122 
SCCF RECON,ioos:station:SCCF:56:1,2017-10-14T09:00:00Z,26.4645,-82.1044,1.725,3.41,1111122 
SCCF RECON,ioos:station:SCCF:56:1,2017-10-14T10:00:00Z,26.4645,-82.1044,1.8,3.63,1111122 
SCCF RECON,ioos:station:SCCF:56:1,2017-10-14T11:00:00Z,26.4645,-82.1044,1.878,3.86,1111122 
SCCF RECON,ioos:station:SCCF:56:1,2017-10-14T12:00:00Z,26.4645,-82.1044,1.935,3.95,1111122 
SCCF RECON,ioos:station:SCCF:56:1,2017-10-14T13:00:00Z,26.4645,-82.1044,1.984,3.87,1111122 
SCCF RECON,ioos:station:SCCF:56:1,2017-10-14T14:00:00Z,26.4645,-82.1044,1.997,3.58,1111122 
SCCF RECON,ioos:station:SCCF:56:1,2017-10-14T15:00:00Z,26.4645,-82.1044,1.956,3.64,1111122 
SCCF RECON,ioos:station:SCCF:56:1,2017-10-14T16:00:00Z,26.4645,-82.1044,1.85,3.16,1111122 
SCCF RECON,ioos:station:SCCF:56:1,2017-10-14T17:00:00Z,26.4645,-82.1044,1.709,2.73,1111122 
SCCF RECON,ioos:station:SCCF:56:1,2017-10-14T18:00:00Z,26.4645,-82.1044,1.559,2.43,1111122 
SCCF RECON,ioos:station:SCCF:56:1,2017-10-14T19:00:00Z,26.4645,-82.1044,1.444,2.49,1111122 
SCCF RECON,ioos:station:SCCF:56:1,2017-10-14T20:00:00Z,26.4645,-82.1044,1.37,2.7,1111122 
SCCF RECON,ioos:station:SCCF:56:1,2017-10-14T21:00:00Z,26.4645,-82.1044,1.34,2.93,1111122 
SCCF RECON,ioos:station:SCCF:56:1,2017-10-14T22:00:00Z,26.4645,-82.1044,1.43,2.79,1111122 
SCCF RECON,ioos:station:SCCF:56:1,2017-10-15T04:00:00Z,26.4645,-82.1044,1.875,3.7,1111122 
SCCF RECON,ioos:station:SCCF:56:1,2017-10-15T05:00:00Z,26.4645,-82.1044,1.851,3.65,1111122 